sat.trackr.live / text

‹ back to catalog

CHECKMATE 6

NORAD 56165 · 2023-050D

PAYLOAD ACTIVE UNKNOWN

§ Identity

Operator
Country
US
Launch date
2023-04-02
Launch site
AFWTR
Launch vehicle
Mass (kg)
RCS (m²)

External: N2YO · Heavens-Above · Gunter

§ Orbital elements

Epoch: 2026-09-21T16:33:47.189664Z

Period
103.69 min
Inclination
81.0076°
Eccentricity
0.0019426
Mean motion
13.88751896 rev/d
Perigee alt
918.8 km
Apogee alt
947.2 km
Semi-major
7,311.1 km
B*
7.1107e-6
RAAN
338.9382°
Arg perigee
46.2891°
Mean anomaly
313.9873°
Rev number
17,548

§ Raw data

CHECKMATE 61 56165U 23050D   26264.69012951  .00000020  00000+0  71107-5 0  99982 56165  81.0076 338.9382 0019426  46.2891 313.9873 13.88751896175480

JSON: /api/v1/satellites/56165 · /tle

For live sub-satellite position, see the globe view (requires WebGL).

§ Visibility from observer

Set your observer location to see the next 7 days of passes ≥ 10°. The values pass through the URL so the page stays shareable.

No JS? Fill the form by hand. The geolocation button needs JavaScript.